Probability
3 0 0 0 6 0 0 0 0 0 0 0 0 0 0 0 0 0 0 0 0 0 6 6 6 3 3 3 6 6 3 3 3 3 3 3 0 3 0 0 0 0 0
3 3 0 0 3 0 0 0 0 0 3 0 0 0 0 0 0 0 0 0 0 0 6 6 6 3 3 3 6 3 3 3 3 3 3 3 3 3 0 0 0 0 0
0 0 0 0 0 3 0 0 0 0 0 0 0 0 0 0 0 0 0 0 0 0 0 3 6 3 3 3 3 0 3 3 3 3 3 3 3 3 0 0 0 0 0
0 0 0 0 0 0 0 0 0 0 0 0 0 0 0 0 0 0 0 0 0 0 0 0 0 3 3 3 3 0 3 3 3 3 3 3 3 3 0 0 0 0 0
0 0 0 0 0 0 0 0 0 0 0 0 0 0 0 0 0 0 0 0 0 0 0 0 0 0 0 3 3 6 0 3 3 3 3 3 3 0 0 0 0 0 0
0 0 0 0 0 0 0 0 0 0 0 0 0 0 0 0 0 0 0 0 0 0 0 0 0 0 0 0 3 3 3 3 3 3 3 3 3 0 0 0 0 0 0
0 0 0 0 0 0 0 0 0 0 0 0 0 0 0 0 0 0 0 0 0 0 0 0 0 0 0 0 0 0 3 3 3 3 3 3 3 0 0 0 0 0 0
0 0 0 0 0 0 0 0 0 0 0 0 0 0 0 0 0 0 0 0 0 0 0 0 0 0 0 0 0 0 0 3 3 3 3 3 3 0 0 0 0 0 0
0 0 0 0 0 0 0 0 0 0 0 0 0 0 0 0 0 0 0 0 0 0 0 0 0 0 0 0 0 0 0 0 0 3 3 3 3 0 0 0 0 0 0
0 0 0 0 0 0 0 0 0 0 0 0 0 0 0 0 0 0 0 0 0 0 0 0 0 0 0 0 0 0 0 0 0 3 3 3 3 0 0 0 0 0 0
0 0 0 0 0 0 0 0 0 0 0 0 0 0 0 0 0 0 0 0 0 0 0 0 0 0 0 0 0 0 0 0 0 0 0 0 3 0 0 3 0 0 0
0 0 0 0 0 0 0 0 0 0 0 0 0 0 0 0 0 0 0 0 0 0 0 0 0 0 0 0 0 0 0 0 0 0 0 0 0 0 0 3 0 0 0
0 0 0 0 0 0 0 0 0 0 0 0 0 0 0 0 0 0 0 0 0 0 0 0 0 0 0 0 0 0 0 0 0 0 0 0 0 0 0 0 0 0 0
0 0 0 0 0 0 0 0 0 0 0 0 0 0 0 0 0 0 0 0 0 0 0 0 0 0 0 0 0 0 0 0 0 0 0 0 0 0 0 0 0 0 0
0 0 0 0 0 0 0 0 0 0 0 0 0 0 0 0 0 0 0 0 0 0 0 0 0 0 0 0 0 0 0 0 0 0 0 0 0 0 0 0 0 0 0
3 0 0 0 0 0 0 0 0 0 0 0 0 0 0 0 0 0 0 0 0 0 0 0 0 0 0 0 0 0 0 0 0 0 0 0 0 0 0 0 0 0 0
3 0 0 0 0 0 0 0 0 0 0 0 0 0 0 0 0 0 0 0 0 0 0 0 0 0 0 0 0 0 0 0 0 0 0 0 0 0 0 0 0 0 0
0 0 0 0 0 0 0 0 0 0 0 0 0 0 0 0 0 0 0 0 0 0 0 0 0 0 0 0 0 0 0 0 0 0 0 0 0 0 0 0 0 0 0
0 0 0 0 0 0 0 0 0 0 0 0 0 0 0 0 0 0 0 0 0 0 0 0 0 0 0 0 0 0 0 0 0 0 0 0 0 0 0 0 0 0 0
0 0 0 0 0 0 0 0 0 0 0 0 0 0 0 0 0 0 0 0 0 0 0 0 0 0 0 0 0 0 0 0 0 0 0 0 0 0 0 0 0 0 0
0 0 0 0 0 0 0 0 0 0 0 0 0 0 0 0 0 0 0 0 0 0 0 0 0 0 0 0 0 0 0 0 0 0 0 0 0 0 0 0 0 0 0
0 0 0 0 0 0 0 0 0 0 0 0 0 0 0 0 0 0 0 0 0 0 0 0 0 0 0 0 0 0 0 0 0 0 0 0 0 0 0 0 0 0 0
0 0 0 0 0 0 0 0 0 0 0 0 0 0 0 0 0 0 0 0 0 0 0 0 0 0 0 0 0 0 0 0 0 0 0 0 0 0 0 0 0 0 0
0 0 0 0 0 0 0 0 0 0 0 0 0 0 0 0 0 0 0 0 0 0 0 0 0 0 0 0 0 0 0 0 0 0 0 0 0 0 0 0 0 0 0
0 0 0 0 0 0 0 0 0 0 0 0 0 0 0 0 0 0 0 0 0 0 0 0 0 0 0 0 0 0 0 0 0 0 0 0 0 0 0 0 0 0 0
0 0 0 0 0 0 0 0 0 0 0 0 0 0 0 0 0 0 0 0 0 0 0 0 0 0 0 0 0 0 0 0 0 0 0 0 0 0 0 0 0 0 0
Height
5784 5786 5788 5789 5790 5791 5792 5794 5795 5796 5798 5799 5800 5800 5801 5801 5801 5801 5801 5802 5801 5801 5801 5801 5800 5800 5800 5800 5799 5798 5797 5795 5793 5791 5789 5787 5784 5782 5779 5776 5773 5770 5767
5773 5775 5777 5779 5780 5781 5782 5784 5785 5787 5788 5790 5791 5792 5792 5793 5793 5793 5794 5794 5794 5793 5793 5792 5792 5792 5792 5792 5792 5791 5790 5788 5786 5784 5782 5780 5777 5774 5772 5769 5765 5762 5759
5762 5764 5766 5767 5769 5770 5771 5773 5775 5777 5779 5780 5781 5782 5783 5784 5785 5785 5785 5786 5786 5785 5785 5785 5784 5784 5785 5785 5784 5784 5783 5781 5779 5777 5775 5772 5770 5767 5764 5761 5757 5754 5750
5751 5753 5754 5755 5757 5759 5761 5763 5765 5766 5768 5770 5771 5772 5773 5774 5776 5776 5777 5777 5777 5777 5777 5776 5776 5776 5777 5777 5777 5776 5775 5774 5772 5770 5767 5765 5762 5759 5756 5752 5749 5745 5742
5739 5741 5743 5744 5745 5747 5750 5752 5754 5756 5758 5759 5761 5762 5764 5765 5766 5767 5768 5768 5769 5769 5768 5768 5768 5768 5768 5769 5769 5768 5767 5766 5764 5762 5759 5757 5754 5751 5747 5744 5740 5737 5733
5728 5730 5732 5733 5734 5736 5739 5742 5744 5746 5748 5749 5751 5753 5754 5755 5756 5757 5758 5759 5760 5760 5759 5759 5759 5759 5759 5760 5760 5760 5759 5758 5756 5753 5751 5748 5746 5742 5739 5736 5732 5728 5724
5717 5719 5720 5722 5724 5726 5729 5731 5733 5735 5737 5739 5741 5742 5744 5744 5746 5747 5748 5749 5750 5750 5750 5750 5750 5750 5751 5752 5752 5752 5751 5749 5747 5745 5742 5740 5737 5734 5730 5727 5723 5719 5715
5706 5708 5710 5712 5714 5717 5719 5721 5723 5725 5727 5729 5731 5732 5734 5736 5736 5737 5738 5740 5740 5741 5741 5741 5741 5741 5742 5742 5743 5743 5742 5741 5739 5736 5734 5731 5728 5725 5721 5717 5714 5710 5706
5695 5697 5700 5702 5704 5706 5708 5710 5712 5714 5716 5718 5720 5722 5723 5726 5727 5728 5729 5730 5731 5731 5731 5731 5731 5732 5732 5733 5734 5734 5733 5731 5730 5727 5725 5722 5719 5716 5712 5708 5704 5701 5697
5684 5686 5688 5691 5693 5695 5697 5698 5701 5703 5705 5708 5709 5711 5713 5715 5717 5718 5720 5720 5721 5722 5722 5722 5722 5723 5723 5724 5724 5724 5723 5722 5720 5718 5716 5712 5710 5706 5703 5699 5695 5691 5687
5673 5675 5677 5680 5682 5683 5685 5687 5689 5692 5695 5697 5699 5701 5703 5705 5706 5708 5710 5711 5712 5713 5713 5713 5713 5713 5714 5714 5714 5715 5714 5712 5711 5709 5706 5703 5700 5697 5693 5690 5686 5682 5678
5662 5664 5665 5668 5670 5672 5674 5676 5678 5681 5684 5686 5688 5690 5692 5695 5697 5698 5700 5701 5702 5703 5703 5703 5703 5704 5704 5705 5705 5705 5704 5703 5701 5699 5697 5694 5691 5687 5684 5680 5677 5673 5669
5651 5653 5654 5657 5659 5661 5663 5665 5667 5670 5672 5675 5677 5679 5682 5684 5686 5688 5689 5690 5692 5693 5693 5693 5693 5693 5694 5695 5696 5695 5695 5694 5692 5690 5687 5684 5681 5678 5675 5671 5667 5664 5660
5640 5641 5644 5646 5648 5651 5653 5655 5657 5659 5661 5664 5666 5668 5671 5672 5675 5677 5679 5680 5681 5682 5683 5684 5684 5684 5685 5686 5686 5686 5685 5684 5683 5681 5678 5675 5672 5669 5665 5662 5659 5655 5651
5629 5631 5633 5636 5638 5640 5642 5644 5646 5648 5650 5653 5655 5657 5659 5661 5664 5666 5668 5669 5670 5671 5673 5674 5674 5675 5675 5676 5677 5676 5676 5675 5673 5671 5669 5666 5663 5660 5657 5653 5650 5646 5643
5618 5620 5623 5625 5627 5630 5632 5633 5635 5637 5639 5641 5644 5646 5648 5650 5652 5655 5656 5658 5659 5661 5662 5664 5664 5665 5666 5666 5667 5667 5666 5665 5664 5662 5659 5657 5654 5651 5648 5645 5642 5638 5635
5609 5610 5612 5614 5616 5619 5621 5623 5624 5626 5628 5630 5632 5635 5637 5639 5641 5643 5645 5647 5649 5650 5652 5654 5654 5655 5656 5656 5657 5657 5656 5655 5654 5653 5650 5648 5646 5643 5640 5637 5634 5630 5626
5598 5600 5601 5603 5605 5607 5609 5612 5614 5615 5617 5619 5621 5624 5626 5628 5630 5632 5635 5637 5638 5640 5642 5644 5645 5646 5646 5647 5648 5647 5647 5645 5644 5643 5641 5639 5637 5634 5632 5629 5625 5622 5619
5589 5590 5591 5592 5594 5596 5598 5600 5603 5604 5607 5608 5610 5612 5614 5617 5620 5622 5624 5626 5628 5630 5631 5633 5635 5636 5638 5638 5638 5637 5637 5636 5635 5634 5632 5630 5628 5625 5623 5620 5617 5614 5610
5579 5580 5581 5582 5583 5585 5587 5589 5591 5593 5596 5598 5600 5602 5603 5606 5609 5611 5613 5615 5617 5619 5621 5623 5626 5627 5628 5628 5628 5628 5628 5627 5626 5625 5623 5621 5619 5617 5614 5612 5609 5606 5602
5569 5570 5571 5572 5573 5575 5577 5579 5581 5583 5585 5587 5589 5591 5593 5595 5597 5600 5603 5605 5607 5609 5611 5614 5616 5618 5619 5619 5619 5619 5618 5618 5616 5615 5614 5612 5610 5608 5606 5603 5600 5597 5593
5559 5560 5561 5562 5564 5565 5567 5568 5570 5572 5575 5577 5579 5581 5583 5585 5587 5590 5593 5595 5597 5599 5602 5604 5606 5608 5609 5610 5609 5609 5609 5609 5608 5607 5605 5603 5601 5599 5597 5594 5592 5588 5585
5549 5550 5551 5553 5554 5555 5557 5559 5560 5562 5565 5567 5569 5571 5573 5575 5578 5580 5582 5585 5587 5589 5592 5595 5596 5598 5599 5600 5600 5600 5600 5599 5599 5598 5596 5594 5592 5590 5588 5586 5583 5580 5576
5541 5542 5543 5544 5545 5546 5548 5550 5551 5553 5556 5558 5560 5562 5564 5566 5568 5571 5573 5575 5578 5580 5583 5585 5587 5588 5588 5589 5589 5590 5590 5590 5589 5588 5587 5586 5584 5582 5580 5577 5574 5571 5568
5533 5534 5535 5536 5537 5538 5540 5541 5543 5545 5547 5549 5551 5553 5556 5558 5561 5563 5565 5567 5569 5571 5572 5574 5575 5577 5578 5579 5580 5581 5581 5581 5581 5580 5579 5578 5576 5574 5571 5569 5566 5563 5560
5526 5526 5527 5528 5529 5531 5532 5533 5535 5537 5539 5540 5543 5545 5548 5550 5552 5554 5556 5558 5560 5562 5563 5564 5565 5567 5568 5569 5571 5572 5573 5572 5572 5572 5571 5570 5568 5566 5564 5561 5558 5555 5552
Wind_Speed
41 41 39 39 38 39 38 37 37 36 36 35 34 34 33 33 32 31 31 31 30 30 31 31 30 30 29 29 30 30 30 30 30 30 30 31 32 32 33 33 34 34 34
43 42 41 41 40 40 40 40 39 38 37 36 36 35 35 34 34 33 32 32 31 31 31 31 31 31 31 30 30 30 31 31 31 31 32 33 33 33 34 35 35 35 35
45 43 42 42 42 42 42 41 41 40 40 38 38 37 36 36 35 35 34 33 32 32 32 31 31 31 32 31 30 31 32 32 32 32 33 34 34 35 35 36 36 37 36
45 44 44 43 44 43 43 43 43 41 41 40 40 39 38 37 36 36 35 34 33 33 32 33 33 32 33 32 32 32 33 34 34 34 34 35 35 36 36 37 38 37 37
47 46 44 44 44 44 43 43 43 42 41 40 40 40 40 39 38 37 37 36 35 34 33 33 33 33 34 34 33 33 34 34 34 35 35 36 36 37 37 38 38 38 38
48 47 46 45 44 43 43 43 44 44 43 41 41 41 41 41 40 39 38 38 37 36 35 35 34 34 34 34 34 34 34 34 35 35 36 37 37 37 37 38 38 38 38
48 47 47 46 45 44 43 43 44 43 44 43 42 42 41 40 40 39 39 38 38 37 36 36 36 36 36 35 35 34 35 36 37 37 37 38 38 38 38 38 38 38 39
49 48 47 46 44 45 45 44 43 42 43 44 43 42 41 40 39 39 39 39 37 37 37 37 37 37 37 37 37 37 37 37 38 38 38 38 39 39 38 38 39 39 39
49 48 47 46 46 46 45 45 43 43 43 43 43 42 41 40 39 39 39 39 38 38 38 38 38 38 37 37 37 38 38 38 38 38 38 38 39 39 39 39 39 40 40
48 47 47 47 46 45 45 45 45 44 43 43 43 42 41 40 39 38 38 39 39 39 39 39 39 38 38 37 37 38 38 38 38 38 38 38 39 39 39 39 40 40 40
46 46 47 47 47 46 46 47 46 46 43 43 43 42 41 41 40 38 39 39 40 39 40 40 40 39 38 37 37 38 38 38 37 38 38 38 39 40 40 40 40 40 40
46 47 47 47 47 47 47 48 48 47 45 45 44 44 43 42 41 40 40 40 40 40 40 39 39 39 38 37 37 37 38 38 37 38 39 39 40 40 40 40 40 40 40
45 45 47 47 46 45 45 46 47 48 47 46 45 44 44 44 43 42 41 40 41 41 40 39 40 39 39 38 37 37 38 38 38 38 39 39 39 39 39 39 40 40 39
44 43 44 45 45 44 44 45 46 47 47 46 46 45 44 44 45 44 42 42 42 42 41 40 41 40 39 38 37 38 38 38 38 39 39 39 39 39 39 39 39 39 38
44 43 43 45 45 44 44 44 45 46 47 46 45 45 44 44 45 44 43 42 42 41 41 40 40 40 39 38 38 38 38 38 38 39 38 38 38 38 37 37 37 37 37
42 43 44 44 45 45 44 43 44 45 47 46 45 44 43 43 43 44 44 42 41 41 40 40 39 39 39 38 38 38 38 39 39 39 38 38 37 37 36 35 35 36 37
42 43 43 44 45 46 45 44 44 44 46 47 45 43 43 43 43 43 43 44 43 42 40 39 38 39 38 38 38 39 38 39 39 38 37 37 37 36 35 35 35 36 37
38 38 40 41 42 44 45 44 45 45 45 45 45 44 42 42 42 42 42 43 42 41 40 39 38 38 37 38 38 38 38 38 38 37 37 37 36 34 34 35 35 36 36
37 37 38 39 41 42 43 44 44 43 43 43 43 44 44 42 40 41 42 42 42 42 42 41 40 38 37 38 37 38 38 38 38 37 37 36 35 34 35 35 35 35 36
35 36 37 37 39 40 42 42 42 41 41 41 42 43 44 43 41 41 41 42 42 41 41 41 40 39 37 37 38 38 38 38 38 36 36 35 34 35 35 35 35 35 36
34 35 35 36 37 38 39 39 40 40 40 41 41 42 43 43 42 41 41 40 40 40 39 40 40 39 38 37 37 38 39 38 36 35 35 35 34 34 35 35 35 35 35
34 34 34 34 33 34 35 35 37 38 39 39 40 40 40 40 41 40 40 39 39 38 39 41 40 39 38 38 38 38 37 35 35 35 34 34 34 34 35 35 34 34 34
33 32 32 32 32 32 33 34 34 36 37 38 39 38 38 38 39 39 38 38 38 38 39 40 40 38 38 38 37 37 36 35 34 34 33 33 33 34 35 34 35 35 34
29 30 30 31 32 31 32 33 33 34 34 35 35 35 35 35 35 35 35 35 35 35 37 38 38 38 38 38 37 36 34 34 34 33 33 33 33 33 34 34 34 34 33
29 29 29 30 30 32 32 33 33 32 32 32 32 33 33 32 33 33 34 34 34 34 35 35 35 36 36 35 35 34 33 32 32 32 32 32 32 32 32 32 32 32 31
27 28 28 29 30 31 32 32 33 32 31 31 31 31 31 32 33 33 34 34 34 34 34 34 34 35 35 34 34 34 34 32 31 31 30 30 30 30 30 30 29 29 29
Wind_Direction
250 252 253 253 253 253 253 254 254 254 256 257 259 260 262 264 265 267 267 267 269 272 274 275 274 274 275 277 279 283 286 287 289 290 291 294 295 297 298 298 298 297 297
250 252 252 253 253 253 253 252 252 253 255 257 259 260 262 263 264 265 267 268 269 271 273 274 274 273 274 276 279 282 285 286 288 290 291 294 295 297 298 298 298 297 296
251 252 252 254 253 252 252 251 252 253 254 256 258 261 262 262 263 265 267 268 269 271 272 274 274 273 273 275 279 282 284 285 287 289 291 294 295 297 298 297 297 297 295
251 252 254 255 254 253 252 252 253 254 254 256 257 258 260 261 262 263 264 267 269 271 272 273 274 273 273 274 278 282 283 285 286 288 291 293 295 296 297 297 297 297 295
250 252 253 254 255 253 251 252 252 253 254 255 256 257 258 260 261 262 263 265 268 270 271 273 274 274 272 274 277 280 282 284 286 288 290 293 294 295 295 296 297 297 297
250 251 252 253 253 251 250 251 253 253 254 254 256 257 258 260 261 261 263 265 266 268 270 271 273 273 272 273 275 278 280 283 285 287 289 292 293 294 295 296 297 297 297
250 251 251 252 251 249 249 251 254 253 253 254 255 256 258 260 261 262 263 264 265 267 269 271 272 272 272 271 273 276 279 282 284 285 288 291 292 294 295 295 297 298 297
251 252 251 250 249 249 249 251 253 254 254 253 255 256 257 258 260 261 261 262 264 266 268 271 271 271 271 272 273 275 279 282 285 286 286 290 292 293 295 295 297 298 298
252 252 251 249 250 251 252 252 252 252 253 253 254 256 257 258 259 259 261 261 263 266 268 271 270 270 271 271 273 274 277 281 285 285 286 289 290 293 295 296 296 297 297
252 252 251 250 251 252 252 252 251 251 254 254 254 255 257 258 259 257 259 261 262 264 267 269 269 269 270 271 273 275 277 280 284 285 287 288 290 292 294 295 295 296 297
252 252 252 251 252 251 252 252 251 250 251 254 255 256 257 258 258 257 258 260 262 264 267 268 268 268 269 272 273 275 276 279 282 284 286 288 290 291 292 293 295 296 297
251 251 252 251 252 252 252 252 251 250 251 254 255 255 256 256 256 258 260 260 261 264 266 268 268 267 268 270 272 274 276 279 280 283 285 288 290 291 292 294 294 296 297
250 250 251 251 252 252 253 253 252 252 251 252 253 254 256 256 255 258 259 260 262 264 264 265 266 266 266 268 270 273 275 277 279 283 285 288 290 291 292 293 295 295 295
249 250 250 251 251 252 253 253 253 252 250 252 253 255 257 257 256 258 260 261 262 262 263 264 265 265 266 268 270 273 275 277 280 282 285 287 290 291 291 292 294 294 294
250 251 251 250 251 251 252 253 254 253 251 252 254 255 255 256 256 258 260 261 262 262 263 264 264 264 266 267 270 273 275 278 281 283 284 287 289 290 291 292 293 294 294
252 253 253 251 251 251 251 252 254 254 253 253 254 254 255 256 256 256 257 259 261 262 262 263 262 262 264 265 269 273 276 278 281 283 285 286 288 289 290 291 292 294 295
256 256 254 253 251 249 249 250 252 255 256 255 253 254 255 256 256 256 257 257 260 261 262 262 261 261 262 266 269 272 276 278 279 282 285 286 286 287 288 290 292 294 295
257 256 256 255 252 251 250 251 252 255 256 253 253 253 254 256 257 257 256 256 258 260 261 261 261 261 264 267 269 272 275 276 278 281 283 285 285 285 287 290 292 295 296
256 256 256 254 253 251 251 252 253 253 253 252 254 255 255 256 257 258 257 256 257 259 261 262 261 261 265 268 270 272 273 275 277 279 281 283 284 285 287 290 292 295 296
256 257 256 255 253 252 252 253 252 251 251 253 255 255 255 255 257 258 257 257 258 259 260 259 260 262 265 267 269 270 271 273 275 278 280 281 284 286 288 290 292 295 295
257 257 256 255 253 252 252 253 251 250 250 253 255 255 255 255 255 257 258 257 256 256 256 257 259 261 263 266 268 270 272 273 275 277 279 281 284 286 287 290 292 294 295
258 256 257 255 253 251 251 252 250 249 251 253 255 255 255 255 254 256 256 254 253 254 255 256 258 261 263 265 268 271 273 273 274 275 277 280 282 284 287 290 292 294 296
259 258 258 256 254 252 250 250 249 250 251 252 253 253 254 254 254 255 254 252 253 255 256 257 257 259 262 264 267 269 271 272 275 276 277 280 282 283 287 289 291 293 294
261 261 259 257 257 256 254 250 249 249 250 251 252 252 253 254 254 253 251 251 252 256 258 259 258 258 260 262 265 268 269 272 274 276 278 280 281 284 288 290 291 292 293
259 260 259 258 257 256 255 253 250 251 252 252 252 250 250 252 251 251 251 251 253 257 258 259 258 258 260 261 263 266 269 270 272 274 277 281 282 285 288 290 291 292 292
257 257 258 258 256 255 255 253 252 253 253 252 252 249 248 251 252 252 252 252 254 257 259 258 258 259 259 259 261 265 266 268 271 273 277 282 283 285 287 289 291 293 294